Guasti, CA

2:35 AM PST on February 25, 2017 (GMT -0800)
Ontario International

Weather History for KONT - May, 2009

Change the Weather History Date:

Monday, May 11, 2009

  Actual Average Record
Temperature  
Mean Temperature 71 °F 67 °F  
Max Temperature 83 °F 78 °F 97 °F (2013)
Min Temperature 58 °F 55 °F 49 °F (2010)
Degree Days  
Heating Degree Days 0 1  
Month to date heating degree days 3 19  
Since 1 July heating degree days 1255 1512  
Cooling Degree Days 6 3  
Month to date cooling degree days 64 32  
Year to date cooling degree days 164 91  
Growing Degree Days 18 (Base 50)    
Moisture  
Dew Point 54 °F    
Average Humidity 63    
Maximum Humidity 93    
Minimum Humidity 33    
Precipitation  
Precipitation 0.00 in 0.01 in 0.02 in (1958)
Month to date precipitation T 0.17  
Year to date precipitation 5.16 10.13  
Since 1 July precipitation 9.39  
Snow  
Snow 0.00 in - - ()
Month to date snowfall 0.0  
Year to date snowfall 0.0  
Snow Depth 0.00 in    
Sea Level Pressure  
Sea Level Pressure 29.87 in    
Wind  
Wind Speed 7 mph (WSW)    
Max Wind Speed 15 mph    
Max Gust Speed 23 mph    
Visibility 5 miles    
Events      
T = Trace of Precipitation, MM = Missing Value Source: NWS Daily Summary

Daily Weather History Graph

Daily Weather History Graph

Search for Another Location

Airport or City:

Trip Planner

Search our weather history database for the weather conditions in past years. The results will help you decide how hot, cold, wet, or windy it might be!

Date:

Astronomy

May. 11, 2009 Rise Set
Actual Time 5:51 AM PDT 7:42 PM PDT
Civil Twilight 5:24 AM PDT 8:09 PM PDT
Nautical Twilight 4:51 AM PDT 8:43 PM PDT
Astronomical Twilight 4:15 AM PDT 9:18 PM PDT
Moon 10:31 PM PDT (5/11) 7:22 AM PDT (5/11)
Length of Visible Light 14h 45m
Length of Day
13h 50m
Waning Gibbous, 93% of the Moon is Illuminated
May 11
Waning Gibbous
May 17
Last Quarter
May 24
New
May 30
First Quarter
Jun 7
Full

Hourly Weather History & Observations

Time (PDT) Temp. Heat Index Dew Point Humidity Pressure Visibility Wind Dir Wind Speed Gust Speed Precip Events Conditions
12:53 AM 61.0 °F - 55.0 °F 81% 29.85 in 7.0 mi West 4.6 mph - N/A   Clear
1:53 AM 59.0 °F - 54.0 °F 83% 29.85 in 4.0 mi West 5.8 mph - N/A   Haze
2:53 AM 57.9 °F - 54.0 °F 87% 29.85 in 4.0 mi West 4.6 mph - N/A   Clear
3:53 AM 57.0 °F - 54.0 °F 89% 29.85 in 3.0 mi West 5.8 mph - N/A   Clear
4:53 AM 55.9 °F - 54.0 °F 93% 29.85 in 3.0 mi West 4.6 mph - N/A   Scattered Clouds
5:06 AM 55.4 °F - 53.6 °F 94% 29.87 in 2.5 mi West 3.5 mph - N/A   Scattered Clouds
5:15 AM 55.4 °F - 53.6 °F 94% 29.88 in 2.5 mi West 4.6 mph - N/A   Mostly Cloudy
5:53 AM 57.0 °F - 55.0 °F 93% 29.86 in 2.0 mi West 4.6 mph - N/A   Overcast
6:15 AM 57.2 °F - 55.4 °F 94% 29.89 in 1.8 mi West 3.5 mph - N/A   Overcast
6:53 AM 57.9 °F - 55.0 °F 90% 29.88 in 1.8 mi West 4.6 mph - N/A   Overcast
7:15 AM 57.2 °F - 55.4 °F 94% 29.92 in 2.0 mi West 5.8 mph - N/A   Overcast
7:53 AM 59.0 °F - 55.0 °F 87% 29.91 in 2.5 mi WSW 6.9 mph - N/A   Overcast
8:53 AM 59.0 °F - 55.0 °F 87% 29.92 in 2.5 mi WSW 5.8 mph - N/A   Overcast
9:50 AM 60.8 °F - 55.4 °F 82% 29.94 in 3.0 mi SSW 3.5 mph - N/A   Haze
9:51 AM 60.8 °F - 55.4 °F 82% 29.94 in 3.0 mi SSW 3.5 mph - N/A   Haze
9:53 AM 60.1 °F - 55.0 °F 83% 29.92 in 3.0 mi South 3.5 mph - N/A   Haze
10:43 AM 64.4 °F - 55.4 °F 73% 29.94 in 3.0 mi WSW 5.8 mph - N/A   Haze
10:53 AM 64.9 °F - 55.0 °F 70% 29.92 in 4.0 mi WSW 4.6 mph - N/A   Haze
11:53 AM 71.1 °F - 55.0 °F 57% 29.90 in 4.0 mi South 3.5 mph - N/A   Haze
12:53 PM 75.9 °F - 55.0 °F 48% 29.87 in 5.0 mi West 8.1 mph - N/A   Haze
1:53 PM 80.1 °F - 51.1 °F 36% 29.86 in 10.0 mi WSW 9.2 mph 18.4 mph N/A   Clear
2:53 PM 82.0 °F - 51.1 °F 34% 29.83 in 10.0 mi West 8.1 mph - N/A   Clear
3:53 PM 82.9 °F - 50.0 °F 32% 29.82 in 10.0 mi West 10.4 mph 17.3 mph N/A   Clear
4:53 PM 80.1 °F 80.0 °F 54.0 °F 40% 29.81 in 8.0 mi WSW 12.7 mph 18.4 mph N/A   Clear
5:53 PM 77.0 °F - 53.1 °F 43% 29.81 in 10.0 mi WSW 12.7 mph - N/A   Partly Cloudy
6:53 PM 73.0 °F - 54.0 °F 51% 29.81 in 10.0 mi WSW 11.5 mph - N/A   Clear
7:53 PM 69.1 °F - 55.0 °F 61% 29.83 in 10.0 mi West 9.2 mph - N/A   Partly Cloudy
8:53 PM 64.9 °F - 55.0 °F 70% 29.86 in 8.0 mi West 11.5 mph - N/A   Partly Cloudy
9:53 PM 63.0 °F - 54.0 °F 72% 29.87 in 6.0 mi WSW 6.9 mph - N/A   Haze
10:53 PM 62.1 °F - 54.0 °F 75% 29.88 in 5.0 mi West 4.6 mph - N/A   Haze
11:53 PM 60.1 °F - 54.0 °F 80% 29.88 in 5.0 mi WSW 4.6 mph - N/A   Haze